Weather History for Mason, MI

Change the Weather History Date:

Monday, November 11, 2013

  Actual Average (KLAN) Record (KLAN)
Temperature  
Mean Temperature 36 °F 41 °F  
Max Temperature 43 °F 49 °F 71 °F (1909)
Min Temperature 28 °F 34 °F 8 °F (1895)
Degree Days  
Heating Degree Days 30 24  
Month to date heating degree days 239  
Since 1 July heating degree days 889  
Cooling Degree Days 0 0  
Month to date cooling degree days 0  
Year to date cooling degree days 625  
Moisture  
Dew Point 30 °F    
Average Humidity 76    
Maximum Humidity 93    
Minimum Humidity 62    
Precipitation  
Precipitation 0.00 in 0.09 in 1.10 in (1995)
Month to date precipitation 1.03  
Year to date precipitation 28.15  
Snow  
Snow 0.00 in 0.10 in 2.80 in (1933)
Month to date snowfall 0.6  
Since 1 July snowfall 1.0  
Since 1 September snowfall 1.0  
Snow Depth -    
Sea Level Pressure  
Sea Level Pressure 30.14 in    
Wind  
Wind Speed 6 mph (WNW)    
Max Wind Speed 16 mph    
Max Gust Speed 25 mph    
Visibility 8 miles    
Events Rain , Snow    
T = Trace of Precipitation, MM = Missing Value Source: NWS Daily Summary

Daily Weather History Graph

Daily Weather History Graph

Search for Another Location

Airport:

Trip Planner

Search our weather history database for the weather conditions in past years. The results will help you decide how hot, cold, wet, or windy it might be!

Date:

Astronomy

Nov. 11, 2013 Rise Set
Actual Time 7:24 AM EST 5:18 PM EST
Civil Twilight 6:54 AM EST 5:48 PM EST
Nautical Twilight 6:20 AM EST 6:22 PM EST
Astronomical Twilight 5:47 AM EST 6:55 PM EST
Moon 2:06 PM EST (11/11) 1:00 AM EST (11/11)
Length of Visible Light 10h 54m
Length of Day
9h 54m
Waxing Gibbous, 66% of the Moon is Illuminated
Nov 11
Waxing Gibbous
Nov 17
Full
Nov 25
Last Quarter
Dec 2
New
Dec 9
First Quarter

Hourly Weather History & Observations

Time (EST) Temp. Windchill Dew Point Humidity Pressure Visibility Wind Dir Wind Speed Gust Speed Precip Events Conditions
12:14 AM 36.7 °F - 30.6 °F 78% 30.22 in 10.0 mi Calm Calm - N/A   Overcast
12:33 AM 36.7 °F - 30.7 °F 79% 30.21 in 10.0 mi Calm Calm - N/A   Overcast
12:53 AM 36.7 °F - 31.1 °F 80% 30.21 in 10.0 mi Calm Calm - N/A   Overcast
1:14 AM 37.2 °F 34.7 °F 31.3 °F 79% 30.18 in 10.0 mi SSW 3.5 mph - N/A   Overcast
1:33 AM 37.9 °F - 31.1 °F 76% 30.18 in 10.0 mi Calm Calm - N/A   Overcast
1:53 AM 37.9 °F - 31.1 °F 76% 30.18 in 10.0 mi Calm Calm - N/A   Overcast
2:13 AM 38.3 °F - 31.5 °F 76% 30.16 in 10.0 mi Calm Calm - N/A   Overcast
2:33 AM 38.3 °F - 31.5 °F 76% 30.15 in 10.0 mi Calm Calm - N/A   Overcast
2:54 AM 38.7 °F 36.3 °F 31.6 °F 76% 30.15 in 10.0 mi SSW 3.5 mph - N/A   Overcast
3:13 AM 39.0 °F - 31.6 °F 75% 30.14 in 10.0 mi Calm Calm - N/A   Overcast
3:33 AM 39.4 °F - 31.5 °F 73% 30.13 in 10.0 mi Calm Calm - N/A   Overcast
3:54 AM 39.7 °F 37.6 °F 31.5 °F 72% 30.12 in 10.0 mi SSW 3.5 mph - N/A   Overcast
4:13 AM 40.1 °F 38.0 °F 31.1 °F 70% 30.11 in 10.0 mi SSW 3.5 mph - N/A   Overcast
4:33 AM 40.1 °F 36.1 °F 31.1 °F 70% 30.09 in 10.0 mi SSW 5.8 mph - N/A   Mostly Cloudy
4:54 AM 40.5 °F 35.8 °F 31.1 °F 69% 30.09 in 10.0 mi SW 6.9 mph - N/A   Mostly Cloudy
5:13 AM 41.0 °F 36.4 °F 30.7 °F 67% 30.08 in 10.0 mi South 6.9 mph - N/A   Overcast
5:33 AM 41.2 °F 37.3 °F 30.9 °F 67% 30.08 in 10.0 mi SW 5.8 mph - N/A   Overcast
5:54 AM 41.4 °F 36.2 °F 30.7 °F 66% 30.07 in 10.0 mi SW 8.1 mph - N/A   Overcast
6:13 AM 41.5 °F 36.4 °F 30.7 °F 65% 30.06 in 10.0 mi SW 8.1 mph - N/A   Overcast
6:33 AM 41.7 °F 35.6 °F 30.2 °F 64% 30.06 in 10.0 mi SW 10.4 mph - N/A   Overcast
6:54 AM 41.9 °F 36.9 °F 30.2 °F 63% 30.06 in 10.0 mi SW 8.1 mph - N/A   Overcast
7:13 AM 41.2 °F 38.2 °F 31.1 °F 67% 30.04 in 10.0 mi SSW 4.6 mph - N/A   Overcast
7:33 AM 41.9 °F 37.5 °F 30.7 °F 65% 30.06 in 10.0 mi SW 6.9 mph - N/A   Overcast
7:53 AM 41.9 °F 38.2 °F 31.1 °F 66% 30.05 in 10.0 mi SW 5.8 mph - N/A   Overcast
8:13 AM 42.4 °F 38.1 °F 31.1 °F 64% 30.06 in 10.0 mi SW 6.9 mph - N/A   Overcast
8:33 AM 43.2 °F 37.4 °F 31.1 °F 62% 30.05 in 10.0 mi SW 10.4 mph 17.3 mph N/A   Overcast
8:53 AM 43.3 °F 37.7 °F 31.1 °F 62% 30.06 in 10.0 mi WSW 10.4 mph - N/A   Overcast
9:13 AM 43.3 °F 38.6 °F 31.1 °F 62% 30.05 in 10.0 mi WSW 8.1 mph - N/A   Overcast
9:33 AM 43.3 °F 38.1 °F 31.3 °F 62% 30.05 in 10.0 mi WSW 9.2 mph - N/A   Overcast
9:54 AM 43.5 °F 38.9 °F 31.6 °F 63% 30.06 in 10.0 mi WSW 8.1 mph 16.1 mph N/A   Overcast
10:13 AM 42.8 °F 39.3 °F 32.4 °F 67% 30.05 in 10.0 mi West 5.8 mph - N/A Rain Light Rain
10:33 AM 42.8 °F 37.5 °F 33.1 °F 69% 30.06 in 10.0 mi WSW 9.2 mph - N/A Rain Light Rain
10:53 AM 42.1 °F 38.4 °F 34.5 °F 75% 30.05 in 10.0 mi WSW 5.8 mph - N/A Rain Light Rain
11:13 AM 42.1 °F 38.4 °F 35.6 °F 78% 30.05 in 10.0 mi West 5.8 mph - N/A Rain Light Rain
11:34 AM 41.7 °F 37.3 °F 36.7 °F 82% 30.04 in 7.0 mi West 6.9 mph - N/A Rain Rain
11:53 AM 41.9 °F 36.3 °F 37.8 °F 85% 30.04 in 7.0 mi West 9.2 mph - N/A Rain Rain
12:13 PM 41.5 °F 36.4 °F 37.9 °F 87% 30.04 in 5.0 mi West 8.1 mph - N/A Rain Light Rain
12:33 PM 41.4 °F 35.2 °F 37.9 °F 88% 30.04 in 5.0 mi WNW 10.4 mph - N/A Rain Rain
12:53 PM 41.4 °F 34.7 °F 37.9 °F 88% 30.04 in 5.0 mi WNW 11.5 mph - N/A Rain Light Rain
1:14 PM 40.6 °F 34.3 °F 37.4 °F 88% 30.03 in 5.0 mi WNW 10.4 mph - N/A Rain Light Rain
1:33 PM 40.1 °F 33.2 °F 36.5 °F 87% 30.04 in 4.0 mi WNW 11.5 mph - N/A Rain Light Rain
1:53 PM 39.2 °F 33.6 °F 36.1 °F 89% 30.05 in 4.0 mi WNW 8.1 mph - N/A Rain Rain
2:14 PM 38.3 °F 30.9 °F 35.1 °F 88% 30.06 in 3.0 mi NW 11.5 mph 17.3 mph N/A   Overcast
2:33 PM 36.9 °F 30.1 °F 34.0 °F 89% 30.06 in 3.0 mi NW 9.2 mph - N/A   Overcast
2:53 PM 36.5 °F 29.2 °F 33.8 °F 90% 30.06 in 4.0 mi NW 10.4 mph 17.3 mph N/A   Overcast
3:14 PM 32.9 °F 23.7 °F 31.1 °F 93% 30.09 in 1.2 mi North 12.7 mph 17.3 mph N/A Snow Light Snow
3:33 PM 32.0 °F 21.2 °F 29.7 °F 91% 30.10 in 1.2 mi NNW 16.1 mph 25.3 mph N/A Snow Light Snow
3:53 PM 32.0 °F 24.2 °F 29.8 °F 92% 30.11 in 1.2 mi NNW 9.2 mph - N/A Snow Light Snow
4:13 PM 32.0 °F 24.2 °F 30.0 °F 92% 30.12 in 1.5 mi NNW 9.2 mph - N/A Snow Light Snow
4:33 PM 32.0 °F 24.2 °F 30.2 °F 93% 30.13 in 0.8 mi NNW 9.2 mph - N/A Snow Light Snow
4:53 PM 32.0 °F 21.2 °F 29.7 °F 91% 30.14 in 0.8 mi North 16.1 mph 20.7 mph N/A Snow Light Snow
5:13 PM 31.1 °F 21.9 °F 27.9 °F 88% 30.15 in 3.0 mi NNW 11.5 mph 18.4 mph N/A Snow Light Snow
5:33 PM 30.9 °F 20.7 °F 26.4 °F 83% 30.16 in 4.0 mi North 13.8 mph 19.6 mph N/A Snow Light Snow
5:53 PM 30.7 °F 21.4 °F 27.0 °F 86% 30.18 in 5.0 mi NNW 11.5 mph 16.1 mph N/A Snow Light Snow
6:13 PM 30.7 °F 23.3 °F 26.6 °F 85% 30.19 in 7.0 mi NNW 8.1 mph - N/A   Overcast
6:33 PM 30.7 °F 22.6 °F 26.6 °F 85% 30.19 in 10.0 mi NNW 9.2 mph - N/A   Overcast
6:53 PM 30.9 °F 23.5 °F 26.2 °F 83% 30.21 in 10.0 mi NNW 8.1 mph - N/A   Overcast
7:13 PM 30.7 °F 20.9 °F 24.1 °F 76% 30.22 in 10.0 mi NNW 12.7 mph 18.4 mph N/A   Overcast
7:33 PM 30.2 °F 19.3 °F 23.0 °F 75% 30.22 in 10.0 mi NNW 15.0 mph 18.4 mph N/A   Overcast
7:53 PM 29.8 °F 20.9 °F 22.8 °F 75% 30.23 in 10.0 mi NNW 10.4 mph 16.1 mph N/A   Mostly Cloudy
8:13 PM 29.7 °F 20.7 °F 22.8 °F 76% 30.24 in 10.0 mi NNW 10.4 mph - N/A   Mostly Cloudy
8:33 PM 29.3 °F 19.6 °F 21.7 °F 73% 30.25 in 10.0 mi NNW 11.5 mph 20.7 mph N/A   Overcast
8:53 PM 29.3 °F 20.2 °F 21.0 °F 71% 30.26 in 10.0 mi NNW 10.4 mph - N/A   Overcast
9:13 PM 28.8 °F 18.4 °F 20.8 °F 72% 30.27 in 10.0 mi NW 12.7 mph - N/A   Scattered Clouds
9:34 PM 28.6 °F 19.3 °F 20.3 °F 71% 30.27 in 10.0 mi NNW 10.4 mph - N/A   Clear
9:53 PM 28.2 °F 18.9 °F 20.1 °F 72% 30.28 in 10.0 mi NNW 10.4 mph 18.4 mph N/A   Clear
10:13 PM 28.0 °F 20.0 °F 20.1 °F 72% 30.30 in 10.0 mi NNW 8.1 mph - N/A   Clear
10:34 PM 28.0 °F 20.8 °F 20.1 °F 72% 30.30 in 10.0 mi NNW 6.9 mph - N/A   Scattered Clouds
10:53 PM 28.2 °F 20.2 °F 19.9 °F 71% 30.31 in 10.0 mi NNW 8.1 mph - N/A   Overcast
11:13 PM 28.2 °F 19.5 °F 19.9 °F 71% 30.31 in 10.0 mi NNW 9.2 mph - N/A   Overcast
11:34 PM 28.2 °F 17.7 °F 19.9 °F 71% 30.32 in 10.0 mi NNW 12.7 mph 17.3 mph N/A   Overcast
11:53 PM 28.2 °F 18.9 °F 19.9 °F 71% 30.33 in 10.0 mi NNW 10.4 mph - N/A   Overcast